Regional Weather Roundup
Issued by NWS Little Rock, AR

Home | Current Version | Previous Version | Graphics & Text | Print | Product List | Glossary On
Versions: 1 2 3 4 5 6 7 8 9 10 11 12 13 14 15 16 17 18 19 20 21 22 23 24 25 26 27 28 29 30 31 32 33 34 35 36 37 38 39 40 41 42 43 44 45 46 47 48 49 50
000
ASUS44 KLZK 171805
RWRLZK

WEATHER ROUNDUP FOR ARKANSAS
NATIONAL WEATHER SERVICE LITTLE ROCK AR
1200 PM CST WED DEC 17 2014

NOTE: "FAIR" INDICATES FEW OR NO CLOUDS BELOW 12,000 FEET WITH NO
SIGNIFICANT WEATHER AND/OR OBSTRUCTIONS TO VISIBILITY.

ARZ001-003-010-029-171900-
NORTHWEST ARKANSAS

CITY           SKY/WX    TMP DP  RH WIND       PRES   REMARKS
FAYETTEVILLE   CLOUDY    34  29  82 CALM      30.31S
6HR MIN TEMP:  26; 6HR MAX TEMP:  34;

FORT SMITH     LGT RAIN  36  32  85 NE6       30.33F
6HR MIN TEMP:  30; 6HR MAX TEMP:  36; 6HR PCP:  0.01;

HARRISON       CLOUDY    34  26  72 CALM      30.30S
6HR MIN TEMP:  24; 6HR MAX TEMP:  34;

BENTONVILLE    CLOUDY    36  27  69 CALM      30.31F
6HR MIN TEMP:  28; 6HR MAX TEMP:  36;

ROGERS         CLOUDY    35  28  75 CALM      30.30F
6HR MIN TEMP:  25; 6HR MAX TEMP:  35;

SILOAM SPGS    CLOUDY    34  25  69 E3        30.29F
6HR MIN TEMP:  27; 6HR MAX TEMP:  34; 6HR PCP:  0.02;

HIGHFILL       CLOUDY    34  29  82 CALM      30.29F
6HR MIN TEMP:  27; 6HR MAX TEMP:  34;

SPRINGDALE     CLOUDY    34  27  75 E5        30.32S WCI  30
$$

ARZ004-005-016-171900-
NORTH CENTRAL ARKANSAS

CITY           SKY/WX    TMP DP  RH WIND       PRES   REMARKS
BATESVILLE     FAIR      37  27  65 CALM      30.32F
6HR MIN TEMP:  28; 6HR MAX TEMP:  37;

FLIPPIN        FAIR      34  23  64 CALM      30.32S
6HR MIN TEMP:  25; 6HR MAX TEMP:  34;

MTN HOME       FAIR      34  26  72 CALM      30.30F
6HR MIN TEMP:  23; 6HR MAX TEMP:  34;

$$

ARZ040-041-171900-
WEST CENTRAL ARKANSAS

CITY           SKY/WX    TMP DP  RH WIND       PRES   REMARKS
MENA           CLOUDY    37  32  81 CALM      30.30F
MOUNT IDA      CLOUDY    38  30  73 CALM      30.28F
6HR MIN TEMP:  29; 6HR MAX TEMP:  39;

$$

ARZ009-017-025-026-028-171900-
NORTHEAST ARKANSAS

CITY           SKY/WX    TMP DP  RH WIND       PRES   REMARKS
CORNING          N/A     36  27  69 CALM      30.33F
JONESBORO      FAIR      36  30  79 E5        30.33F
6HR MIN TEMP:  29; 6HR MAX TEMP:  36;

NEWPORT        FAIR      36  29  76 VRB3      30.35F
6HR MIN TEMP:  28; 6HR MAX TEMP:  36;

WALNUT RIDGE   FAIR      36  25  64 CALM      30.32F
6HR MIN TEMP:  27; 6HR MAX TEMP:  36;

BLYTHEVILLE    FAIR      39  30  70 N5        30.32F
6HR MIN TEMP:  35; 6HR MAX TEMP:  39;

$$

ARZ022-023-033-042-044-171900-
CENTRAL ARKANSAS

CITY           SKY/WX    TMP DP  RH WIND       PRES   REMARKS
LITTLE ROCK    CLOUDY    39  27  62 E6        30.33F
6HR MIN TEMP:  32; 6HR MAX TEMP:  39;

N LITTLE ROCK  CLOUDY    37  29  74 E6        30.33F
6HR MIN TEMP:  31; 6HR MAX TEMP:  38;

JACKSONVILLE   FAIR      38  27  65 E2        30.33F
6HR MIN TEMP:  28; 6HR MAX TEMP:  38;

SEARCY         FAIR      37  28  70 CALM      30.36F
6HR MIN TEMP:  29; 6HR MAX TEMP:  37;

HOT SPRINGS    CLOUDY    38  27  64 CALM      30.33F
6HR MIN TEMP:  31; 6HR MAX TEMP:  38;

RUSSELLVILLE   CLOUDY    38  27  64 S3        30.34S
6HR MIN TEMP:  28; 6HR MAX TEMP:  39;

CLINTON        FAIR      37  27  65 CALM      30.34F
$$

ARZ036-171900-
EAST ARKANSAS

CITY           SKY/WX    TMP DP  RH WIND       PRES   REMARKS
WEST MEMPHIS   FAIR      40  33  76 N5        30.31F
6HR MIN TEMP:  30; 6HR MAX TEMP:  40;

$$

ARZ050-053-066-070-073-171900-
SOUTHWEST ARKANSAS

CITY           SKY/WX    TMP DP  RH WIND       PRES   REMARKS
ARKADELPHIA    FAIR      40  33  76 NE6       30.33F
6HR MIN TEMP:  31; 6HR MAX TEMP:  39;

CAMDEN         PTSUNNY   46  30  53 MISG      30.31F
TEXARKANA      CLOUDY    40  32  73 VRB5      30.30F
6HR MIN TEMP:  33; 6HR MAX TEMP:  40;

EL DORADO      FAIR      44  32  62 CALM      30.30F
6HR MIN TEMP:  32; 6HR MAX TEMP:  45;

DE QUEEN         N/A    N/A N/A N/A MISG      30.30F
6HR MIN TEMP:  31; 6HR MAX TEMP:  38;

$$

ARZ056-057-069-171900-
SOUTHEAST ARKANSAS

CITY           SKY/WX    TMP DP  RH WIND       PRES   REMARKS
PINE BLUFF     FAIR      41  30  65 N3        30.33F
6HR MIN TEMP:  32; 6HR MAX TEMP:  41;

STUTTGART      FAIR      39  28  65 CALM      30.34F
6HR MIN TEMP:  30; 6HR MAX TEMP:  39;

MONTICELLO     FAIR      44  32  62 E3        30.30F
6HR MIN TEMP:  32; 6HR MAX TEMP:  45;


$$




USA.gov is the U.S. government's official web portal to all federal, state and local government web resources and services.